When you browse on this site, cookies collect data to enhance your experience and personalize the content and advertising you see.
Visit our Privacy Policy to learn more. By continuing to use the site, you agree to this use of cookies and data.
  • In Hungary
  • List of Countries
  • For 7 days
  • Water Temperature
  • Weather Map
  • News
  • Weather Widgets
  • user-avatar
    Login

    Hourly Weather Viareggio

    Today, 6 December, Friday

    Time Temperature Precipitation Wind Pressure Humidity
    00:00 +10°C° 0 mm 2 mps 769 mmHg 66%
    01:00 +10°C° 0 mm 2 mps 768 mmHg 66%
    02:00 +10°C° 0 mm 2 mps 768 mmHg 68%
    03:00 +10°C° 0 mm 2 mps 768 mmHg 70%
    04:00 +10°C° 0 mm 2 mps 767 mmHg 72%
    05:00 +10°C° 0 mm 2 mps 767 mmHg 74%
    06:00 +10°C° 0 mm 2 mps 768 mmHg 76%
    07:00 +10°C° 0 mm 2 mps 768 mmHg 75%
    08:00 +12°C° 0 mm 2 mps 768 mmHg 76%
    09:00 +12°C° 0 mm 2 mps 768 mmHg 76%
    10:00 +13°C° 0 mm 2 mps 767 mmHg 77%
    11:00 +13°C° 0 mm 2 mps 767 mmHg 76%
    12:00 +14°C° 0 mm 1 mps 767 mmHg 75%
    13:00 +14°C° 0 mm 1 mps 767 mmHg 74%
    14:00 +14°C° 0 mm 1 mps 766 mmHg 77%
    15:00 +13°C° 0 mm 1 mps 766 mmHg 80%
    16:00 +13°C° 0 mm 1 mps 765 mmHg 82%
    17:00 +12°C° 0 mm 1 mps 765 mmHg 84%
    18:00 +12°C° 0 mm 1 mps 765 mmHg 85%
    19:00 +11°C° 0 mm 1 mps 765 mmHg 86%
    20:00 +11°C° 0 mm 1 mps 765 mmHg 87%
    21:00 +11°C° 0 mm 1 mps 765 mmHg 87%
    22:00 +11°C° 0 mm 1 mps 765 mmHg 88%
    23:00 +11°C° 0 mm 1 mps 765 mmHg 88%

    Tomorrow, 7 December, Saturday

    Time Temperature Precipitation Wind Pressure Humidity
    00:00 +12°C° 0 mm 1 mps 765 mmHg 88%
    01:00 +12°C° 0 mm 1 mps 764 mmHg 88%
    02:00 +12°C° 0 mm 1 mps 764 mmHg 89%
    03:00 +12°C° 0 mm 1 mps 763 mmHg 89%
    04:00 +12°C° 0 mm 2 mps 763 mmHg 90%
    05:00 +12°C° 0.1 mm 2 mps 763 mmHg 91%
    06:00 +12°C° 0.1 mm 2 mps 763 mmHg 91%
    07:00 +11°C° 0.1 mm 3 mps 763 mmHg 92%
    08:00 +11°C° 0 mm 3 mps 763 mmHg 91%
    09:00 +11°C° 0 mm 3 mps 763 mmHg 91%
    10:00 +12°C° 0 mm 3 mps 763 mmHg 90%
    11:00 +12°C° 0.1 mm 3 mps 763 mmHg 89%
    12:00 +12°C° 0.1 mm 4 mps 763 mmHg 88%
    13:00 +13°C° 0.1 mm 4 mps 763 mmHg 88%
    14:00 +13°C° 0.1 mm 4 mps 763 mmHg 88%
    15:00 +13°C° 0.1 mm 3 mps 762 mmHg 88%
    16:00 +12°C° 0.1 mm 3 mps 762 mmHg 88%
    17:00 +12°C° 0.2 mm 3 mps 762 mmHg 90%
    18:00 +12°C° 0.2 mm 3 mps 763 mmHg 91%
    19:00 +12°C° 0.2 mm 3 mps 763 mmHg 92%
    20:00 +12°C° 0.2 mm 3 mps 763 mmHg 92%
    21:00 +12°C° 0.2 mm 3 mps 764 mmHg 92%
    22:00 +12°C° 0.2 mm 3 mps 764 mmHg 92%
    23:00 +12°C° 0.1 mm 3 mps 764 mmHg 92%

    Day after tomorrow, 8 December, Sunday

    Time Temperature Precipitation Wind Pressure Humidity
    00:00 +12°C° 0.1 mm 3 mps 764 mmHg 91%
    01:00 +13°C° 0.1 mm 2 mps 764 mmHg 91%
    02:00 +13°C° 0.1 mm 2 mps 764 mmHg 92%
    03:00 +13°C° 0.1 mm 2 mps 764 mmHg 92%
    04:00 +13°C° 0.1 mm 2 mps 763 mmHg 92%
    05:00 +12°C° 0.1 mm 2 mps 764 mmHg 92%
    06:00 +11°C° 0.1 mm 3 mps 764 mmHg 92%
    07:00 +11°C° 0.1 mm 3 mps 764 mmHg 92%
    08:00 +12°C° 0.1 mm 3 mps 764 mmHg 91%
    09:00 +12°C° 0.1 mm 3 mps 764 mmHg 89%
    10:00 +13°C° 0.1 mm 3 mps 764 mmHg 87%
    11:00 +13°C° 0.2 mm 3 mps 764 mmHg 88%
    12:00 +13°C° 0.2 mm 3 mps 764 mmHg 90%
    13:00 +14°C° 0.2 mm 2 mps 764 mmHg 91%
    14:00 +13°C° 0.1 mm 2 mps 763 mmHg 91%
    15:00 +13°C° 0.1 mm 2 mps 763 mmHg 90%
    16:00 +13°C° 0.1 mm 2 mps 763 mmHg 90%
    17:00 +12°C° 0.1 mm 3 mps 762 mmHg 89%
    18:00 +12°C° 0.1 mm 3 mps 762 mmHg 89%
    19:00 +11°C° 0.1 mm 4 mps 762 mmHg 89%
    20:00 +11°C° 0.2 mm 4 mps 762 mmHg 89%
    21:00 +12°C° 0.2 mm 5 mps 762 mmHg 90%
    22:00 +12°C° 0.2 mm 5 mps 762 mmHg 90%
    23:00 +12°C° 0.5 mm 5 mps 761 mmHg 91%

    9 December, Monday

    Time Temperature Precipitation Wind Pressure Humidity
    00:00 +11°C° 0.5 mm 6 mps 760 mmHg 93%
    01:00 +11°C° 0.5 mm 7 mps 760 mmHg 94%
    02:00 +11°C° 1.5 mm 6 mps 759 mmHg 95%
    03:00 +11°C° 1.5 mm 6 mps 758 mmHg 95%
    04:00 +13°C° 1.5 mm 6 mps 757 mmHg 96%
    05:00 +12°C° 0.8 mm 5 mps 756 mmHg 95%
    06:00 +12°C° 0.8 mm 5 mps 756 mmHg 94%
    07:00 +12°C° 0.8 mm 4 mps 755 mmHg 93%
    08:00 +12°C° 0.2 mm 5 mps 755 mmHg 90%
    09:00 +12°C° 0.2 mm 5 mps 754 mmHg 88%
    10:00 +13°C° 0.2 mm 5 mps 754 mmHg 85%
    11:00 +13°C° 0 mm 5 mps 754 mmHg 82%
    12:00 +14°C° 0 mm 5 mps 754 mmHg 79%
    13:00 +14°C° 0 mm 6 mps 753 mmHg 76%
    14:00 +14°C° 0 mm 5 mps 753 mmHg 78%
    15:00 +13°C° 0 mm 5 mps 753 mmHg 80%
    16:00 +12°C° 0 mm 5 mps 753 mmHg 83%
    17:00 +11°C° 0 mm 4 mps 753 mmHg 83%
    18:00 +11°C° 0 mm 3 mps 752 mmHg 84%
    19:00 +10°C° 0 mm 3 mps 752 mmHg 84%
    20:00 +10°C° 0 mm 2 mps 752 mmHg 80%
    21:00 +9°C° 0 mm 2 mps 752 mmHg 75%
    22:00 +9°C° 0 mm 2 mps 753 mmHg 71%
    23:00 +9°C° 0 mm 2 mps 753 mmHg 70%

    10 December, Tuesday

    Time Temperature Precipitation Wind Pressure Humidity
    00:00 +9°C° 0 mm 2 mps 753 mmHg 69%
    01:00 +8°C° 0 mm 2 mps 754 mmHg 67%
    02:00 +8°C° 0 mm 2 mps 754 mmHg 67%
    03:00 +8°C° 0 mm 2 mps 754 mmHg 67%
    04:00 +8°C° 0 mm 3 mps 755 mmHg 66%
    05:00 +7°C° 0 mm 2 mps 755 mmHg 66%
    06:00 +7°C° 0 mm 2 mps 756 mmHg 65%
    07:00 +7°C° 0 mm 2 mps 756 mmHg 65%
    08:00 +8°C° 0 mm 2 mps 757 mmHg 61%
    09:00 +9°C° 0 mm 2 mps 757 mmHg 58%
    10:00 +10°C° 0 mm 2 mps 758 mmHg 55%
    11:00 +11°C° 0 mm 3 mps 759 mmHg 48%
    12:00 +12°C° 0 mm 3 mps 759 mmHg 42%
    13:00 +12°C° 0 mm 3 mps 759 mmHg 36%
    14:00 +12°C° 0 mm 3 mps 760 mmHg 39%
    15:00 +12°C° 0 mm 2 mps 760 mmHg 42%
    16:00 +10°C° 0 mm 2 mps 761 mmHg 45%
    17:00 +9°C° 0 mm 2 mps 761 mmHg 44%
    18:00 +8°C° 0 mm 2 mps 762 mmHg 43%
    19:00 +7°C° 0 mm 2 mps 763 mmHg 43%
    20:00 +6°C° 0 mm 2 mps 763 mmHg 41%
    21:00 +6°C° 0 mm 2 mps 764 mmHg 40%
    22:00 +6°C° 0 mm 2 mps 764 mmHg 39%
    23:00 +6°C° 0 mm 2 mps 764 mmHg 39%

    11 December, Wednesday

    Time Temperature Precipitation Wind Pressure Humidity
    00:00 +6°C° 0 mm 2 mps 765 mmHg 40%
    01:00 +6°C° 0 mm 2 mps 765 mmHg 40%
    02:00 +5°C° 0 mm 2 mps 765 mmHg 42%
    03:00 +5°C° 0 mm 2 mps 764 mmHg 45%
    04:00 +5°C° 0 mm 2 mps 764 mmHg 47%
    05:00 +5°C° 0 mm 2 mps 764 mmHg 49%
    06:00 +5°C° 0 mm 2 mps 764 mmHg 52%
    07:00 +5°C° 0 mm 2 mps 764 mmHg 55%
    08:00 +6°C° 0 mm 2 mps 764 mmHg 54%
    09:00 +7°C° 0 mm 2 mps 764 mmHg 53%
    10:00 +8°C° 0 mm 2 mps 764 mmHg 52%
    11:00 +9°C° 0 mm 2 mps 764 mmHg 52%
    12:00 +9°C° 0 mm 2 mps 763 mmHg 52%
    13:00 +10°C° 0 mm 2 mps 762 mmHg 52%
    14:00 +9°C° 0 mm 2 mps 762 mmHg 57%
    15:00 +9°C° 0 mm 2 mps 761 mmHg 61%
    16:00 +8°C° 0 mm 2 mps 760 mmHg 66%
    17:00 +8°C° 0.1 mm 2 mps 760 mmHg 70%
    18:00 +8°C° 0.1 mm 2 mps 760 mmHg 74%
    19:00 +8°C° 0.1 mm 2 mps 759 mmHg 78%
    20:00 +8°C° 0.1 mm 3 mps 759 mmHg 81%
    21:00 +8°C° 0.1 mm 3 mps 759 mmHg 84%
    22:00 +7°C° 0.1 mm 3 mps 759 mmHg 87%
    23:00 +8°C° 0.1 mm 3 mps 758 mmHg 89%
    Show more